Time,TemperatureF,DewpointF,PressureIn,WindDirection,WindDirectionDegrees,WindSpeedMPH,WindSpeedGustMPH,Humidity,HourlyPrecipIn,Conditions,Clouds,dailyrainin,SoftwareType,DateUTC
2013-01-09 00:03:00,34.0,31.0,30.19,SSE,165,0.0,0.0,90,0.00,,,0.00,,2013-01-09 05:03:00,
2013-01-09 00:12:00,34.0,31.0,30.19,SSE,165,0.0,0.0,90,0.00,,,0.00,,2013-01-09 05:12:00,
2013-01-09 00:22:00,34.0,31.0,30.20,SSE,165,0.0,0.0,90,0.00,,,0.00,,2013-01-09 05:22:00,
2013-01-09 00:33:00,33.0,30.0,30.19,SSE,165,0.0,0.0,90,0.00,,,0.00,,2013-01-09 05:33:00,
2013-01-09 00:42:00,33.0,30.0,30.19,SSE,165,0.0,0.0,90,0.00,,,0.00,,2013-01-09 05:42:00,
2013-01-09 00:53:00,32.0,30.0,30.19,SSE,165,0.0,0.0,91,0.00,,,0.00,,2013-01-09 05:53:00,
2013-01-09 01:02:00,32.0,30.0,30.20,SSE,165,0.0,0.0,91,0.00,,,0.00,,2013-01-09 06:02:00,
2013-01-09 01:12:00,32.0,30.0,30.20,SSE,165,0.0,0.0,91,0.00,,,0.00,,2013-01-09 06:12:00,
2013-01-09 01:22:00,31.0,29.0,30.19,SSE,165,0.0,0.0,92,0.00,,,0.00,,2013-01-09 06:22:00,
2013-01-09 01:32:00,31.0,29.0,30.19,SSE,165,0.0,0.0,92,0.00,,,0.00,,2013-01-09 06:32:00,
2013-01-09 01:42:00,31.0,29.0,30.19,SSE,165,0.0,0.0,92,0.00,,,0.00,,2013-01-09 06:42:00,
2013-01-09 01:52:00,30.0,28.0,30.19,SSE,165,0.0,0.0,93,0.00,,,0.00,,2013-01-09 06:52:00,
2013-01-09 02:02:00,30.0,28.0,30.19,SSE,165,0.0,0.0,93,0.00,,,0.00,,2013-01-09 07:02:00,
2013-01-09 02:12:00,30.0,28.0,30.19,SSE,165,0.0,0.0,93,0.00,,,0.00,,2013-01-09 07:12:00,
2013-01-09 02:22:00,30.0,28.0,30.18,SSE,165,0.0,0.0,94,0.00,,,0.00,,2013-01-09 07:22:00,
2013-01-09 02:32:00,30.0,28.0,30.18,SSE,165,0.0,0.0,94,0.00,,,0.00,,2013-01-09 07:32:00,
2013-01-09 02:42:00,30.0,28.0,30.18,SSE,165,0.0,0.0,94,0.00,,,0.00,,2013-01-09 07:42:00,
2013-01-09 02:52:00,30.0,28.0,30.19,SSE,165,0.0,0.0,94,0.00,,,0.00,,2013-01-09 07:52:00,
2013-01-09 03:02:00,30.0,29.0,30.18,SSE,165,0.0,0.0,95,0.00,,,0.00,,2013-01-09 08:02:00,
2013-01-09 03:12:00,30.0,29.0,30.18,SSE,165,0.0,0.0,95,0.00,,,0.00,,2013-01-09 08:12:00,
2013-01-09 03:22:00,31.0,30.0,30.18,SSE,165,0.0,0.0,95,0.00,,,0.00,,2013-01-09 08:22:00,
2013-01-09 03:32:00,32.0,31.0,30.17,SSE,165,0.0,0.0,95,0.00,,,0.00,,2013-01-09 08:32:00,
2013-01-09 03:42:00,32.0,31.0,30.17,SSE,165,0.0,0.0,95,0.00,,,0.00,,2013-01-09 08:42:00,
2013-01-09 03:53:00,34.0,32.0,30.17,SSE,165,0.0,0.0,93,0.00,,,0.00,,2013-01-09 08:53:00,
2013-01-09 04:02:00,34.0,32.0,30.17,SSE,165,0.0,0.0,92,0.00,,,0.00,,2013-01-09 09:02:00,
2013-01-09 04:12:00,34.0,32.0,30.17,SSE,165,0.0,0.0,92,0.00,,,0.00,,2013-01-09 09:12:00,
2013-01-09 04:22:00,35.0,32.0,30.17,SSE,165,0.0,0.0,90,0.00,,,0.00,,2013-01-09 09:22:00,
2013-01-09 04:32:00,36.0,33.0,30.17,SSE,165,0.0,0.0,90,0.00,,,0.00,,2013-01-09 09:32:00,
2013-01-09 04:42:00,36.0,33.0,30.17,SSE,165,0.0,0.0,90,0.00,,,0.00,,2013-01-09 09:42:00,
2013-01-09 04:53:00,36.0,33.0,30.17,SSE,165,0.0,0.0,88,0.00,,,0.00,,2013-01-09 09:53:00,
2013-01-09 05:02:00,36.0,33.0,30.17,SSE,165,0.0,0.0,88,0.00,,,0.00,,2013-01-09 10:02:00,
2013-01-09 05:12:00,36.0,33.0,30.17,SSE,165,0.0,0.0,88,0.00,,,0.00,,2013-01-09 10:12:00,
2013-01-09 05:22:00,35.0,32.0,30.15,SSE,165,0.0,0.0,88,0.00,,,0.00,,2013-01-09 10:22:00,
2013-01-09 05:32:00,35.0,32.0,30.15,SSE,165,0.0,0.0,88,0.00,,,0.00,,2013-01-09 10:32:00,
2013-01-09 05:42:00,35.0,32.0,30.15,SSE,165,0.0,0.0,88,0.00,,,0.00,,2013-01-09 10:42:00,
2013-01-09 05:52:00,36.0,33.0,30.15,SSE,165,0.0,0.0,89,0.00,,,0.00,,2013-01-09 10:52:00,
2013-01-09 06:02:00,36.0,33.0,30.15,SSE,165,0.0,0.0,89,0.00,,,0.00,,2013-01-09 11:02:00,
2013-01-09 06:12:00,36.0,33.0,30.15,SSE,165,0.0,0.0,89,0.00,,,0.00,,2013-01-09 11:12:00,
2013-01-09 06:22:00,37.0,34.0,30.16,SSE,164,0.0,0.0,89,0.00,,,0.00,,2013-01-09 11:22:00,
2013-01-09 06:32:00,37.0,34.0,30.17,SSE,164,0.0,0.0,89,0.00,,,0.00,,2013-01-09 11:32:00,
2013-01-09 06:42:00,37.0,34.0,30.17,SSE,164,0.0,0.0,89,0.00,,,0.00,,2013-01-09 11:42:00,
2013-01-09 06:53:00,37.0,34.0,30.17,SSE,164,0.0,0.0,89,0.00,,,0.00,,2013-01-09 11:53:00,
2013-01-09 07:03:00,37.0,34.0,30.18,SSE,164,0.0,0.0,89,0.00,,,0.00,,2013-01-09 12:03:00,
2013-01-09 07:12:00,37.0,34.0,30.18,SSE,164,0.0,0.0,89,0.00,,,0.00,,2013-01-09 12:12:00,
2013-01-09 07:23:00,37.0,34.0,30.19,SSE,164,0.0,0.0,90,0.00,,,0.00,,2013-01-09 12:23:00,
2013-01-09 07:33:00,37.0,34.0,30.19,SSE,164,0.0,0.0,90,0.00,,,0.00,,2013-01-09 12:33:00,
2013-01-09 07:43:00,37.0,34.0,30.19,SSE,164,0.0,0.0,90,0.00,,,0.00,,2013-01-09 12:43:00,
2013-01-09 07:53:00,37.0,35.0,30.20,SSE,164,0.0,0.0,91,0.00,,,0.00,,2013-01-09 12:53:00,
2013-01-09 08:03:00,37.0,35.0,30.20,SSE,164,0.0,0.0,91,0.00,,,0.00,,2013-01-09 13:03:00,
2013-01-09 08:12:00,37.0,35.0,30.20,SSE,164,0.0,0.0,91,0.00,,,0.00,,2013-01-09 13:12:00,
2013-01-09 08:23:00,37.0,35.0,30.22,SSE,164,0.0,0.0,92,0.00,,,0.00,,2013-01-09 13:23:00,
2013-01-09 08:33:00,37.0,35.0,30.22,SSE,164,0.0,0.0,92,0.00,,,0.00,,2013-01-09 13:33:00,
2013-01-09 08:43:00,37.0,35.0,30.22,SSE,164,0.0,0.0,92,0.00,,,0.00,,2013-01-09 13:43:00,
2013-01-09 08:53:00,39.0,38.0,30.22,SSE,164,0.0,0.0,95,0.00,,,0.00,,2013-01-09 13:53:00,
2013-01-09 09:03:00,39.0,38.0,30.20,SSE,164,0.0,0.0,95,0.00,,,0.00,,2013-01-09 14:03:00,
2013-01-09 09:12:00,39.0,38.0,30.23,SW,217,0.0,0.0,96,0.00,,,0.00,,2013-01-09 14:12:00,
2013-01-09 09:23:00,39.0,38.0,30.23,SW,217,0.0,0.0,96,0.00,,,0.00,,2013-01-09 14:23:00,
2013-01-09 09:33:00,39.0,38.0,30.22,South,178,0.0,0.0,96,0.01,,,0.01,,2013-01-09 14:33:00,
2013-01-09 09:43:00,39.0,38.0,30.22,South,178,0.0,0.0,96,0.01,,,0.01,,2013-01-09 14:43:00,
2013-01-09 09:53:00,39.0,38.0,30.22,SW,223,1.0,2.0,96,0.01,,,0.01,,2013-01-09 14:53:00,
2013-01-09 10:03:00,39.0,38.0,30.22,SW,215,0.0,1.0,96,0.01,,,0.01,,2013-01-09 15:03:00,
2013-01-09 10:13:00,39.0,38.0,30.22,SW,215,0.0,1.0,96,0.01,,,0.01,,2013-01-09 15:13:00,
2013-01-09 10:23:00,39.0,38.0,30.23,WSW,254,0.0,2.0,97,0.01,,,0.01,,2013-01-09 15:23:00,
2013-01-09 10:33:00,40.0,39.0,30.24,WSW,258,0.0,0.0,97,0.00,,,0.01,,2013-01-09 15:33:00,
2013-01-09 10:42:00,40.0,39.0,30.24,WSW,258,0.0,0.0,97,0.00,,,0.01,,2013-01-09 15:42:00,
2013-01-09 10:53:00,40.0,39.0,30.24,WSW,258,0.0,0.0,97,0.00,,,0.01,,2013-01-09 15:53:00,
2013-01-09 11:03:00,41.0,40.0,30.24,WSW,258,0.0,0.0,97,0.00,,,0.01,,2013-01-09 16:03:00,
2013-01-09 11:12:00,41.0,40.0,30.24,WSW,258,0.0,0.0,97,0.00,,,0.01,,2013-01-09 16:12:00,
2013-01-09 11:23:00,41.0,40.0,30.24,WSW,250,0.0,1.0,97,0.00,,,0.01,,2013-01-09 16:23:00,
2013-01-09 11:33:00,42.0,41.0,30.26,WSW,253,0.0,2.0,96,0.00,,,0.01,,2013-01-09 16:33:00,
2013-01-09 11:43:00,42.0,41.0,30.26,WSW,253,0.0,2.0,96,0.00,,,0.01,,2013-01-09 16:43:00,
2013-01-09 11:52:00,42.0,41.0,30.26,SW,219,0.0,0.0,96,0.00,,,0.01,,2013-01-09 16:52:00,
2013-01-09 12:03:00,43.0,42.0,30.25,WSW,239,0.0,0.0,96,0.00,,,0.01,,2013-01-09 17:03:00,
2013-01-09 12:12:00,43.0,42.0,30.25,WSW,239,0.0,0.0,96,0.00,,,0.01,,2013-01-09 17:12:00,
2013-01-09 12:23:00,43.0,42.0,30.26,SW,219,0.0,7.0,95,0.00,,,0.01,,2013-01-09 17:23:00,
2013-01-09 12:33:00,45.0,43.0,30.25,WSW,251,0.0,8.0,93,0.00,,,0.01,,2013-01-09 17:33:00,
2013-01-09 12:43:00,45.0,43.0,30.25,WSW,251,0.0,8.0,93,0.00,,,0.01,,2013-01-09 17:43:00,
2013-01-09 12:53:00,45.0,43.0,30.25,WNW,298,2.0,9.0,92,0.00,,,0.01,,2013-01-09 17:53:00,
2013-01-09 13:03:00,46.0,43.0,30.25,WSW,257,1.0,8.0,90,0.00,,,0.01,,2013-01-09 18:03:00,
2013-01-09 13:12:00,46.0,43.0,30.25,WSW,257,1.0,8.0,90,0.00,,,0.01,,2013-01-09 18:12:00,
2013-01-09 13:24:00,46.0,42.0,30.24,West,270,4.0,9.0,87,0.00,,,0.01,,2013-01-09 18:24:00,
2013-01-09 13:33:00,46.0,42.0,30.24,West,264,4.0,9.0,86,0.00,,,0.01,,2013-01-09 18:33:00,
2013-01-09 13:43:00,46.0,42.0,30.24,West,264,4.0,9.0,86,0.00,,,0.01,,2013-01-09 18:43:00,
2013-01-09 13:53:00,47.0,43.0,30.24,West,281,0.0,7.0,85,0.00,,,0.01,,2013-01-09 18:53:00,
2013-01-09 14:03:00,48.0,43.0,30.24,WSW,243,5.0,9.0,82,0.00,,,0.01,,2013-01-09 19:03:00,
2013-01-09 14:13:00,48.0,43.0,30.24,WSW,243,5.0,9.0,82,0.00,,,0.01,,2013-01-09 19:13:00,
2013-01-09 14:23:00,48.0,42.0,30.24,South,191,4.0,9.0,79,0.00,,,0.01,,2013-01-09 19:23:00,
2013-01-09 14:33:00,47.0,40.0,30.24,West,275,7.0,10.0,77,0.00,,,0.01,,2013-01-09 19:33:00,
2013-01-09 14:43:00,47.0,40.0,30.24,West,275,7.0,10.0,77,0.00,,,0.01,,2013-01-09 19:43:00,
2013-01-09 14:52:00,47.0,41.0,30.25,West,271,1.0,6.0,79,0.00,,,0.01,,2013-01-09 19:52:00,
2013-01-09 15:03:00,47.0,41.0,30.26,WNW,300,5.0,12.0,78,0.00,,,0.01,,2013-01-09 20:03:00,
2013-01-09 15:12:00,47.0,41.0,30.26,WNW,300,5.0,12.0,78,0.00,,,0.01,,2013-01-09 20:12:00,
2013-01-09 15:23:00,47.0,41.0,30.26,West,268,0.0,10.0,78,0.00,,,0.01,,2013-01-09 20:23:00,
2013-01-09 15:33:00,48.0,41.0,30.27,SW,220,0.0,10.0,76,0.00,,,0.01,,2013-01-09 20:33:00,
2013-01-09 15:43:00,48.0,41.0,30.27,SW,220,0.0,10.0,76,0.00,,,0.01,,2013-01-09 20:43:00,
2013-01-09 15:53:00,47.0,40.0,30.27,West,267,0.0,9.0,76,0.00,,,0.01,,2013-01-09 20:53:00,
2013-01-09 16:03:00,47.0,40.0,30.28,SW,220,0.0,3.0,76,0.00,,,0.01,,2013-01-09 21:03:00,
2013-01-09 16:13:00,47.0,40.0,30.28,SW,220,0.0,3.0,76,0.00,,,0.01,,2013-01-09 21:13:00,
2013-01-09 16:23:00,47.0,40.0,30.28,WSW,246,3.0,8.0,76,0.00,,,0.01,,2013-01-09 21:23:00,
2013-01-09 16:33:00,46.0,40.0,30.29,WSW,247,0.0,0.0,78,0.00,,,0.01,,2013-01-09 21:33:00,
2013-01-09 16:43:00,46.0,40.0,30.29,WSW,247,0.0,0.0,78,0.00,,,0.01,,2013-01-09 21:43:00,
2013-01-09 16:52:00,45.0,39.0,30.30,SSW,210,0.0,6.0,78,0.00,,,0.01,,2013-01-09 21:52:00,
2013-01-09 17:03:00,45.0,39.0,30.30,SSW,210,0.0,0.0,79,0.00,,,0.01,,2013-01-09 22:03:00,
2013-01-09 17:12:00,45.0,39.0,30.30,SSW,210,0.0,0.0,79,0.00,,,0.01,,2013-01-09 22:12:00,
2013-01-09 17:23:00,44.0,38.0,30.31,SSW,210,0.0,0.0,79,0.00,,,0.01,,2013-01-09 22:23:00,
2013-01-09 17:33:00,43.0,37.0,30.31,SSW,210,0.0,0.0,80,0.00,,,0.01,,2013-01-09 22:33:00,
2013-01-09 17:43:00,43.0,37.0,30.31,SSW,210,0.0,0.0,80,0.00,,,0.01,,2013-01-09 22:43:00,
2013-01-09 17:52:00,42.0,37.0,30.32,SSW,210,0.0,0.0,81,0.00,,,0.01,,2013-01-09 22:52:00,
2013-01-09 18:03:00,41.0,36.0,30.33,SSW,210,0.0,0.0,83,0.00,,,0.01,,2013-01-09 23:03:00,
2013-01-09 18:13:00,40.0,36.0,30.33,SSW,210,0.0,0.0,84,0.00,,,0.01,,2013-01-09 23:13:00,
2013-01-09 18:22:00,40.0,36.0,30.33,SSW,210,0.0,0.0,84,0.00,,,0.01,,2013-01-09 23:22:00,
2013-01-09 18:33:00,39.0,35.0,30.35,SSW,210,0.0,0.0,87,0.00,,,0.01,,2013-01-09 23:33:00,
2013-01-09 18:43:00,39.0,35.0,30.35,SSW,210,0.0,0.0,87,0.00,,,0.01,,2013-01-09 23:43:00,
2013-01-09 18:52:00,39.0,36.0,30.35,SSW,210,0.0,0.0,88,0.00,,,0.01,,2013-01-09 23:52:00,
2013-01-09 19:03:00,38.0,35.0,30.36,SSW,210,0.0,0.0,89,0.00,,,0.01,,2013-01-10 00:03:00,
2013-01-09 19:12:00,38.0,35.0,30.36,SSW,210,0.0,0.0,89,0.00,,,0.01,,2013-01-10 00:12:00,
2013-01-09 19:22:00,38.0,35.0,30.36,SSW,210,0.0,0.0,90,0.00,,,0.01,,2013-01-10 00:22:00,
2013-01-09 19:32:00,38.0,35.0,30.37,SSW,210,0.0,0.0,89,0.00,,,0.01,,2013-01-10 00:32:00,
2013-01-09 19:42:00,38.0,35.0,30.37,SSW,210,0.0,0.0,89,0.00,,,0.01,,2013-01-10 00:42:00,
2013-01-09 19:52:00,38.0,35.0,30.38,SSW,210,0.0,0.0,89,0.00,,,0.01,,2013-01-10 00:52:00,
2013-01-09 20:02:00,38.0,35.0,30.38,SSW,210,0.0,0.0,88,0.00,,,0.01,,2013-01-10 01:02:00,
2013-01-09 20:12:00,38.0,35.0,30.38,SSW,210,0.0,0.0,88,0.00,,,0.01,,2013-01-10 01:12:00,
2013-01-09 20:22:00,37.0,34.0,30.39,SSW,210,0.0,0.0,88,0.00,,,0.01,,2013-01-10 01:22:00,
2013-01-09 20:33:00,37.0,34.0,30.38,SSW,210,0.0,0.0,89,0.00,,,0.01,,2013-01-10 01:33:00,
2013-01-09 20:43:00,37.0,34.0,30.38,SSW,210,0.0,0.0,89,0.00,,,0.01,,2013-01-10 01:43:00,
2013-01-09 20:52:00,37.0,34.0,30.39,SSW,210,0.0,0.0,89,0.00,,,0.01,,2013-01-10 01:52:00,
2013-01-09 21:03:00,36.0,33.0,30.39,SSW,210,0.0,0.0,90,0.00,,,0.01,,2013-01-10 02:03:00,
2013-01-09 21:12:00,36.0,33.0,30.39,SSW,210,0.0,0.0,90,0.00,,,0.01,,2013-01-10 02:12:00,
2013-01-09 21:22:00,36.0,33.0,30.40,SSW,210,0.0,0.0,90,0.00,,,0.01,,2013-01-10 02:22:00,
2013-01-09 21:32:00,35.0,33.0,30.40,SSW,210,0.0,0.0,91,0.00,,,0.01,,2013-01-10 02:32:00,
2013-01-09 21:42:00,35.0,33.0,30.40,SSW,210,0.0,0.0,91,0.00,,,0.01,,2013-01-10 02:42:00,
2013-01-09 21:52:00,35.0,33.0,30.40,SSW,210,0.0,0.0,91,0.00,,,0.01,,2013-01-10 02:52:00,
2013-01-09 22:03:00,34.0,32.0,30.41,SSW,210,0.0,0.0,92,0.00,,,0.01,,2013-01-10 03:03:00,
2013-01-09 22:12:00,34.0,32.0,30.41,SSW,210,0.0,0.0,92,0.00,,,0.01,,2013-01-10 03:12:00,
2013-01-09 22:22:00,34.0,32.0,30.42,SSW,210,0.0,0.0,93,0.00,,,0.01,,2013-01-10 03:22:00,
2013-01-09 22:33:00,34.0,32.0,30.42,SSW,210,0.0,0.0,94,0.00,,,0.01,,2013-01-10 03:33:00,
2013-01-09 22:42:00,34.0,32.0,30.42,SSW,210,0.0,0.0,94,0.00,,,0.01,,2013-01-10 03:42:00,
2013-01-09 22:52:00,33.0,31.0,30.42,SSW,210,0.0,0.0,94,0.00,,,0.01,,2013-01-10 03:52:00,
2013-01-09 23:02:00,34.0,33.0,30.44,SSW,210,0.0,0.0,95,0.00,,,0.01,,2013-01-10 04:02:00,
2013-01-09 23:12:00,34.0,33.0,30.44,SSW,210,0.0,0.0,95,0.00,,,0.01,,2013-01-10 04:12:00,
2013-01-09 23:22:00,34.0,33.0,30.45,SSW,210,0.0,0.0,95,0.00,,,0.01,,2013-01-10 04:22:00,
2013-01-09 23:32:00,33.0,32.0,30.45,SSW,210,0.0,0.0,95,0.00,,,0.01,,2013-01-10 04:32:00,
2013-01-09 23:42:00,33.0,32.0,30.45,SSW,210,0.0,0.0,95,0.00,,,0.01,,2013-01-10 04:42:00,
2013-01-09 23:52:00,33.0,32.0,30.45,SSW,210,0.0,0.0,96,0.00,,,0.01,,2013-01-10 04:52:00,